Regional Weather Roundup
Issued by NWS

Home | Current Version | Previous Version | Text Only | Print | Product List | Glossary On
Versions: 1 2 3 4 5 6 7 8 9 10 11 12 13 14 15 16 17 18 19 20 21 22 23 24 25 26 27 28 29 30 31 32 33 34 35 36 37 38 39 40 41 42 43 44 45 46 47 48 49 50
000
ASUS43 KTOP 291159
RWRKS

WEATHER ROUNDUP FOR KANSAS
NATIONAL WEATHER SERVICE GOODLAND KS
700 AM CDT WED MAR 29 2017

NOTE:  "FAIR" INDICATES FEW OR NO CLOUDS BELOW 12,000 FEET WITH NO
SIGNIFICANT WEATHER AND/OR OBSTRUCTIONS TO VISIBILITY.

KSZ001>006-013>018-027>032-041>047-291300-
NORTHWEST KANSAS

CITY           SKY/WX    TMP DP  RH WIND       PRES   REMARKS
GOODLAND       CLOUDY    39  38  96 N17G28    29.95F WCI  30
6HR MIN TEMP:  38; 6HR MAX TEMP:  40; 6HR PCP:  0.05;

HAYS             N/A     45  43  93 N21G26    29.86F FOG
HILL CITY      LGT RAIN  43  43 100 N24G30    29.94R FOG
6HR MIN TEMP:  43; 6HR MAX TEMP:  44; 6HR PCP:  0.11;

RUSSELL        LGT RAIN  46  45  96 N18G24    29.83F FOG
6HR MIN TEMP:  45; 6HR MAX TEMP:  46; 6HR PCP:  0.09;

$$

KSZ061>065-074>080-084>089-291300-
SOUTHWEST KANSAS

CITY           SKY/WX    TMP DP  RH WIND       PRES   REMARKS
DODGE CITY     RAIN      43  42  97 N23       29.79F FOG
6HR MIN TEMP:  43; 6HR MAX TEMP:  46; 6HR PCP:  0.06;

ELKHART          N/A     39  33  79 N15         N/A  WCI  31
GARDEN CITY    LGT RAIN  42  40  92 N26G36    29.83S FOG
6HR MIN TEMP:  42; 6HR MAX TEMP:  44; 6HR PCP:  0.07;

GREAT BEND     LGT RAIN  46  45  96 N22       29.80F
LIBERAL        CLOUDY    43  37  81 N24       29.80R
$$

KSZ066>073-081>083-090>101-291300-
SOUTHEAST KANSAS

CITY           SKY/WX    TMP DP  RH WIND       PRES   REMARKS
CHANUTE        LGT RAIN  57  55  93 E16G23    29.70F
6HR MIN TEMP:  54; 6HR MAX TEMP:  58; 6HR PCP:  0.61;

COFFEYVILLE    LGT RAIN  59  57  93 E18G28    29.64F
6HR MIN TEMP:  57; 6HR MAX TEMP:  63; 6HR PCP:  0.91;

MEDICINE LODGE   N/A     48  47  96 N13       29.69F
NEWTON         RAIN      49  48  97 NE15      29.71F
PARSONS        LGT RAIN  58  56  93 E12G20    29.67F
6HR MIN TEMP:  57; 6HR MAX TEMP:  62; 6HR PCP:  0.70;

WICHITA INTL   LGT RAIN  50  50 100 N14       29.67F
6HR MIN TEMP:  50; 6HR MAX TEMP:  51; 6HR PCP:  0.42;

WICHITA JABRA  RAIN      50  50 100 NE14      29.66F
6HR MIN TEMP:  50; 6HR MAX TEMP:  50;

WICHITA MCCONL RAIN      52  50  93 NE14      29.66F
WINFIELD       LGT RAIN  54  53  97 NE7       29.65F
6HR MIN TEMP:  51; 6HR MAX TEMP:  54; 6HR PCP:  0.50;

$$

KSZ007>012-019>026-033>040-048>060-102>105-291300-
NORTHEAST KANSAS

CITY           SKY/WX    TMP DP  RH WIND       PRES   REMARKS
CONCORDIA      LGT RAIN  47  46  97 NE15      29.88S
6HR MIN TEMP:  46; 6HR MAX TEMP:  47; 6HR PCP:  0.53;

EMPORIA        CLOUDY    50  50 100 E23G30    29.73F
6HR MIN TEMP:  50; 6HR MAX TEMP:  50; 6HR PCP:  1.11;

LAWRENCE       LGT RAIN  51  49  92 NE18G29   29.84F
6HR MIN TEMP:  51; 6HR MAX TEMP:  54; 6HR PCP:  1.20;

MANHATTAN      LGT RAIN  50  49  96 NE21G30   29.81F
6HR MIN TEMP:  49; 6HR MAX TEMP:  51; 6HR PCP:  1.08;

OLATHE IND     LGT RAIN  50  48  93 E17G26    29.85F
6HR MIN TEMP:  50; 6HR MAX TEMP:  53; 6HR PCP:  0.92;

OLATHE EXE     CLOUDY    49  49 100 E14G25    29.85F
6HR MIN TEMP:  49; 6HR MAX TEMP:  52; 6HR PCP:  0.94;

SALINA         LGT RAIN  50  48  93 NE21G28   29.81S FOG
6HR MIN TEMP:  50; 6HR MAX TEMP:  52; 6HR PCP:  0.61;

TOPEKA BILLARD LGT RAIN  51  50  96 E17       29.83F
6HR MIN TEMP:  51; 6HR MAX TEMP:  53; 6HR PCP:  1.26;

TOPEKA FORBES  CLOUDY    51  49  92 E17G28    29.81F
6HR MIN TEMP:  51; 6HR MAX TEMP:  53; 6HR PCP:  1.45;

$$



USA.gov is the U.S. government's official web portal to all federal, state and local government web resources and services.